Regional Weather Roundup
Issued by NWS

Home | Current Version | Previous Version | Graphics & Text | Print | Product List | Glossary On
Versions: 1 2 3 4 5 6 7 8 9 10 11 12 13 14 15 16 17 18 19 20 21 22 23 24 25 26 27 28 29 30 31 32 33 34 35 36 37 38 39 40 41 42 43 44 45 46 47 48 49 50
658
ASUS43 KMPX 010510
RWRMN
WEATHER ROUNDUP FOR MINNESOTA
NATIONAL WEATHER SERVICE TWIN CITIES/CHANHASSEN MN
1200 AM CDT SUN MAY 01 2016


NOTE: "FAIR" INDICATES FEW OR NO CLOUDS BELOW 12,000 FEET WITH NO
SIGNIFICANT WEATHER AND/OR OBSTRUCTIONS TO VISIBILITY. N/A MEANS
CURRENT SKY AND/OR WEATHER CONDITIONS ARE NOT AVAILABLE.

MNZ060>063-068>070-010600-
   Twin Cities Metro

CITY           SKY/WX    TMP DP  RH WIND       PRES   REMARKS
TWIN CITIES    CLOUDY    47  30  51 NE14G21   30.12R
ST PAUL        CLOUDY    47  32  56 NE10      30.13S
CRYSTAL        CLOUDY    46  28  49 NE9       30.12S
BLAINE         CLOUDY    46  30  53 NE10G16   30.13S
EDEN PRAIRIE   CLOUDY    48  30  49 NE10      30.10S
SOUTH ST PAUL  CLOUDY    48  32  54 NE3       30.11S
LAKE ELMO      CLOUDY    46  32  57 NE8       30.12S
$$
MNZ001>005-007-008-013>017-022>024-027-028-010600-
   Northwest Minnesota

CITY           SKY/WX    TMP DP  RH WIND       PRES   REMARKS
BEMIDJI        CLEAR     41  30  63 E3        30.23S
HALLOCK        CLEAR     39  27  60 N6        30.29R
ROSEAU         CLEAR     41  30  65 N3        30.28S
WARROAD        CLEAR     43  36  75 N6        30.28S
THIEF RVR FALL CLEAR     45  27  49 NE9       30.27S
CROOKSTON      CLEAR     45  28  53 NE7       30.26S
FOSSTON        CLEAR     43  28  56 NE6       30.23F
DETROIT LAKES  CLEAR     46  32  57 SE6       30.21S
MOORHEAD       CLEAR     46  28  49 NE8       30.21S
PARK RAPIDS    CLEAR     45  29  53 E6        30.21R
MAHNOMEN       FAIR      43  29  59 E6        30.22R
$$
MNZ006-009>011-018-025>026-010600-
   North Central Minnesota

CITY           SKY/WX    TMP DP  RH WIND       PRES   REMARKS
BAUDETTE       CLEAR     43  26  51 NE8       30.26S
FLAG ISLAND    CLEAR     45  34  65 N3        30.28S
INTL FALLS     CLEAR     42  28  57 NE5       30.25S
WASKISH        CLEAR     45  28  53 NE6       30.24F
BIG FORK       CLEAR     34  27  75 CALM      30.24S
LONGVILLE      CLEAR     39  28  65 CALM      30.23R
GRAND RAPIDS   CLEAR     36  25  64 CALM      30.24S
CRANE LAKE     CLEAR     28  27  93 CALM      30.28R
ORR            CLEAR     37  27  65 CALM      30.22F
COOK           CLEAR     30  27  86 CALM      30.25S
WALKER         FAIR      44  31  60 E7        30.22S
$$
MNZ012-019>021-037-010600-
   Northeast Minnesota

CITY           SKY/WX    TMP DP  RH WIND       PRES   REMARKS
DULUTH         PTCLDY    37  26  64 NE10      30.21F
ELY            CLEAR     28  27  93 CALM      30.24S
HIBBING        CLEAR     28  25  88 CALM      30.23S
EVELETH        CLEAR     30  28  93 CALM      30.24S
DULUTH HARBOR  CLOUDY    39  34  81 NE12      30.23F
TWO HARBORS    CLEAR     37  28  70 N5        30.21S
SILVER BAY     CLEAR     30  27  86 CALM      30.22S
GRAND MARAIS     N/A     42  30  62 E6        30.25S
G MARAIS ARPRT CLEAR     34  25  69 N7        30.23F WCI  28
$$
MNZ029>031-032-039>041-046>048-054>057-064-010600-
   West Central Minnesota

CITY           SKY/WX    TMP DP  RH WIND       PRES   REMARKS
FERGUS FALLS   CLEAR     46  30  53 E3        30.18S
WHEATON        CLOUDY    46  32  57 NE5       30.20S
MORRIS         CLOUDY    46  30  53 E17       30.16S
ALEXANDRIA     CLOUDY    43  27  53 E15G23    30.18S
ELBOW LAKE     FAIR      45  31  59 NE5       30.19R
WADENA         CLEAR     39  28  65 NE5       30.20S
GLENWOOD       PTCLDY    43  28  56 NE14      30.16S
APPLETON       CLOUDY    46  28  49 NE10G18   30.14S
BENSON         CLOUDY    45  27  49 E16G24    30.15R
ORTONVILLE     CLOUDY    45  30  57 E12       30.15S
MADISON        CLOUDY    46  30  53 NE13      30.14R
WILLMAR        MOCLDY    46  30  53 NE14G20   30.14S
$$
MNZ033>034-036-042>043-049>051-058-059-010600-
   Central Minnesota

CITY           SKY/WX    TMP DP  RH WIND       PRES   REMARKS
ST CLOUD       CLOUDY    42  27  55 NE15G24   30.15R
SAUK CENTRE    FAIR      42  29  59 NE14G25   30.17S
PAYNESVILLE    CLOUDY    43  29  56 NE10G17   30.16R
AITKIN         CLOUDY    39  25  56 NE3       30.20F
PINE RIVER     CLEAR     41  28  60 E8        30.25R
BRAINERD       CLOUDY    40  26  57 E7        30.21S
STAPLES        CLOUDY    43  27  52 E6        30.20S
LONG PRAIRIE   FAIR      41  28  60 NE9       30.18S
LITTLE FALLS   CLOUDY    41  27  56 NE7       30.18S
LITCHFIELD     CLOUDY    46  30  53 NE10      30.14R
BUFFALO        CLOUDY    45  28  51 NE8       30.15R
MAPLE LAKE     MOCLDY    45  32  60 NE7       30.15S
HUTCHINSON     MOCLDY    47  32  56 NE14      30.13R
$$
MNZ037-044-045-052-053-010600-
   East Central Minnesota

CITY           SKY/WX    TMP DP  RH WIND       PRES   REMARKS
PRINCETON      CLOUDY    43  30  61 NE9G17    30.16S
MORA           PTCLDY    37  28  70 NE6       30.19S
CAMBRIDGE      CLOUDY    45  30  57 N8        30.14S
RUSH CITY      PTCLDY    41  29  63 NE10      30.16S
MOOSE LAKE     CLOUDY    37  28  70 NE5       30.18F
HINCKLEY       FAIR      37  32  81 NE9       30.18S
CLOQUET        PTCLDY    37  27  65 NE8       30.21S
MCGREGOR       CLOUDY    37  30  75 NE6       30.22S
$$
MNZ071>073-080-081-089-090-097-098-010600-
   Southwest Minnesota

CITY           SKY/WX    TMP DP  RH WIND       PRES   REMARKS
MONTEVIDEO     CLOUDY    46  32  57 E10       30.15R
GRANITE FALLS  MOCLDY    49  33  54 NE14G24   30.13S
CANBY          CLOUDY    48  35  61 NE9       30.14R
MARSHALL       CLOUDY    47  33  58 NE13      30.11R
REDWOOD FALLS  CLOUDY    48  31  51 NE6       30.10S
OLIVIA         CLOUDY    46  32  57 NE14      30.11S
PIPESTONE      CLOUDY    45  41  87 E5        30.08R
WINDOM         RAIN      43  43 100 NE10      30.08S
WORTHINGTON    LGT RAIN  42  40  92 E18       30.06S
JACKSON        LGT RAIN  43  39  87 E17G24    30.07S
TRACY          DRIZZLE   45  42  90 E10       30.10S
SLAYTON        DRIZZLE   42  42 100 E10G16    30.09S
$$
MNZ065>067-074>077-082>085-091>093-010600-
   South Central Minnesota

CITY           SKY/WX    TMP DP  RH WIND       PRES   REMARKS
MANKATO        CLOUDY    45  39  81 NE10      30.09S
NEW ULM        RAIN      45  43  93 E3        30.10S
ST JAMES       DRIZZLE   39  37  93 NE7       30.10S
FAIRMONT       CLOUDY    43  36  75 NE15      30.06R
GLENCOE        CLOUDY    47  33  58 NE8       30.11R
FARIBAULT      CLOUDY    43  43 100 N5        30.09S
OWATONNA       CLOUDY    45  39  81 NE10      30.08S
WASECA         CLOUDY    43  39  87 NE10      30.09S
ALBERT LEA     CLOUDY    43  43 100 NE13      30.05S
$$
MNZ078>079-086>088-094>096-010600-
   Southeast Minnesota

CITY           SKY/WX    TMP DP  RH WIND       PRES   REMARKS
ROCHESTER      LGT RAIN  42  40  92 E16       30.07R
RED WING       DRIZZLE   48  36  61 CALM      30.09S
STANTON        LGT RAIN  46  41  85 CALM      30.09R
DODGE CENTER   DRIZZLE   41  41 100 NE8       30.07S
WINONA         DRIZZLE   45  39  81 E9        30.08S
AUSTIN         DRIZZLE   43  37  81 E16G29    30.04S
PRESTON        LGT RAIN  40  38  95 NE9       30.05S
$$
ABBREVIATIONS USED IN REMARKS
   TC - TEMPERATURES IN CELSIUS
  WCI - WIND CHILL INDEX
   HX - HEAT INDEX
  VSB - VISIBILITY
$$




USA.gov is the U.S. government's official web portal to all federal, state and local government web resources and services.